TimeMDT,TemperatureF,Dew PointF,Humidity,Sea Level PressureIn,VisibilityMPH,Wind Direction,Wind SpeedMPH,Gust SpeedMPH,PrecipitationIn,Events,Conditions,WindDirDegrees,DateUTC
12:52 AM,43.0,39.9,89,29.88,10.0,NNW,6.9,-,N/A,,Clear,330,2011-10-08 06:52:00
1:52 AM,45.0,39.9,82,29.93,10.0,WSW,3.5,-,N/A,,Clear,240,2011-10-08 07:52:00
2:52 AM,42.1,39.9,92,29.95,10.0,North,5.8,-,N/A,,Clear,360,2011-10-08 08:52:00
3:52 AM,44.1,41.0,89,29.97,10.0,North,10.4,-,N/A,,Scattered Clouds,350,2011-10-08 09:52:00
4:52 AM,45.0,41.0,86,29.99,10.0,North,8.1,-,N/A,,Clear,360,2011-10-08 10:52:00
5:52 AM,46.9,43.0,86,30.03,10.0,North,13.8,-,N/A,,Scattered Clouds,350,2011-10-08 11:52:00
6:36 AM,46.4,44.6,93,30.06,10.0,NNW,13.8,-,N/A,,Mostly Cloudy,330,2011-10-08 12:36:00
6:52 AM,46.9,44.1,90,30.06,10.0,NNW,17.3,-,N/A,,Mostly Cloudy,330,2011-10-08 12:52:00
7:04 AM,46.4,44.6,93,30.05,10.0,NNW,16.1,-,N/A,,Scattered Clouds,330,2011-10-08 13:04:00
7:52 AM,46.9,45.0,93,30.06,10.0,NNW,17.3,-,N/A,,Partly Cloudy,330,2011-10-08 13:52:00
8:44 AM,48.2,44.6,87,30.08,10.0,NNW,20.7,27.6,N/A,,Overcast,340,2011-10-08 14:44:00
8:52 AM,48.0,45.0,89,30.11,10.0,NNW,18.4,26.5,N/A,,Overcast,340,2011-10-08 14:52:00
9:01 AM,48.2,44.6,87,30.09,10.0,NNW,18.4,26.5,N/A,,Overcast,340,2011-10-08 15:01:00
9:29 AM,48.2,44.6,87,30.08,10.0,NNW,18.4,29.9,N/A,,Overcast,340,2011-10-08 15:29:00
9:40 AM,48.2,46.4,93,30.09,10.0,NNW,17.3,24.2,N/A,,Overcast,340,2011-10-08 15:40:00
9:52 AM,48.9,45.0,86,30.11,10.0,North,20.7,27.6,N/A,,Overcast,350,2011-10-08 15:52:00
9:59 AM,48.2,44.6,87,30.09,10.0,North,18.4,27.6,N/A,,Overcast,350,2011-10-08 15:59:00
10:11 AM,48.2,44.6,87,30.09,10.0,North,19.6,26.5,N/A,,Overcast,350,2011-10-08 16:11:00
10:52 AM,48.9,44.1,83,30.12,10.0,North,17.3,29.9,N/A,,Overcast,360,2011-10-08 16:52:00
11:52 AM,50.0,44.6,82,30.10,10.0,North,21.9,26.5,N/A,,Overcast,350,2011-10-08 17:52:00
12:52 PM,50.0,44.1,80,30.12,10.0,North,21.9,28.8,0.00,Rain,Light Rain,360,2011-10-08 18:52:00
1:22 PM,50.0,42.8,76,30.09,10.0,North,19.6,-,N/A,,Overcast,350,2011-10-08 19:22:00
1:52 PM,48.9,43.0,80,30.12,10.0,North,18.4,27.6,0.00,Rain,Light Rain,350,2011-10-08 19:52:00
2:52 PM,48.0,45.0,89,30.15,9.0,North,18.4,27.6,0.02,Rain,Light Rain,360,2011-10-08 20:52:00
3:52 PM,46.9,44.1,90,30.16,10.0,North,16.1,-,0.02,Rain,Light Rain,360,2011-10-08 21:52:00
4:52 PM,46.9,45.0,93,30.17,10.0,North,15.0,-,0.02,Rain,Light Rain,360,2011-10-08 22:52:00
5:03 PM,46.4,44.6,93,30.15,10.0,North,15.0,-,0.00,Rain,Light Rain,360,2011-10-08 23:03:00
5:17 PM,46.4,44.6,93,30.16,10.0,North,12.7,-,0.01,Rain,Light Rain,360,2011-10-08 23:17:00
5:52 PM,46.4,44.6,93,30.16,9.0,North,13.8,-,N/A,Rain,Light Rain,10,2011-10-08 23:52:00
6:16 PM,46.4,44.6,93,30.16,10.0,North,15.0,-,0.00,Rain,Light Rain,360,2011-10-09 00:16:00
6:52 PM,46.9,44.1,90,30.21,10.0,North,13.8,20.7,0.00,Rain,Light Rain,350,2011-10-09 00:52:00
7:01 PM,46.4,44.6,93,30.18,10.0,North,12.7,-,0.00,Rain,Light Rain,360,2011-10-09 01:01:00
7:24 PM,46.4,44.6,93,30.18,10.0,North,13.8,-,0.02,Rain,Light Rain,350,2011-10-09 01:24:00
7:52 PM,46.0,44.1,93,30.22,10.0,North,11.5,-,0.03,Rain,Light Rain,360,2011-10-09 01:52:00
8:52 PM,46.0,45.0,96,30.24,10.0,NNW,11.5,-,0.01,Rain,Light Rain,330,2011-10-09 02:52:00
9:52 PM,46.0,44.1,93,30.24,9.0,NNW,11.5,-,0.01,Rain,Light Rain,330,2011-10-09 03:52:00
10:39 PM,46.4,44.6,93,30.23,10.0,NNW,9.2,-,0.00,Rain,Light Rain,340,2011-10-09 04:39:00
10:49 PM,46.4,44.6,93,30.24,10.0,NNW,8.1,-,0.01,Rain,Light Rain,340,2011-10-09 04:49:00
10:52 PM,46.0,44.1,93,30.27,9.0,NNW,9.2,-,0.01,Rain,Light Rain,340,2011-10-09 04:52:00
11:01 PM,46.4,44.6,93,30.24,10.0,NNW,10.4,-,0.00,Rain,Light Rain,340,2011-10-09 05:01:00
11:10 PM,46.4,44.6,93,30.24,9.0,North,8.1,-,0.01,Rain,Light Rain,350,2011-10-09 05:10:00
11:52 PM,46.4,44.6,93,30.24,10.0,North,11.5,-,N/A,Rain,Light Rain,350,2011-10-09 05:52:00